GTI850 KDEN-OMDB

Flight info

Callsign GTI850
Flight time N/A
Altitude 29000
Route EEONS8 WYNDM DCT LNK DCT DSM DCT JOT DCT GIJ DCT SVM Q951 SIKBO DCT MIVOK DCT ANCER/N0490F310 N749A LOMSI/M084F320 DCT 55N050W 56N040W 57N030W 57N020W DCT PIKIL DCT SOVED/N0482F330 DCT LUTOV DCT MAKUX DCT SOSIM L15 MOTOX DCT RUCAC DCT LESDO DCT ETINO DCT DEVDI DCT RIPUS DCT RESIA DCT BELOV/N0481F350 DCT LATAN DCT SALUN N705 MMA P751 DASUM Y234 FYM M872 TULOK/N0484F370 M872 BDB Y214 RAPMA DCT KUVSO DCT KATIT DCT PEKEM M628 RIGIL G783 ELUDA/N0494F350 G783 ASPED Q308 KIPOK Q568 IMPED
Aircraft B77L/H-SDE1E2E3FGHIJ2J3J4J5M1RWXY/LB1D1

Departure

Time 2026-05-07 04:03
Airport Denver International Airport (KDEN)

Arrival

Time N/A
Airport Dubai International Airport (OMDB)
Time Latitude Longitude Altitude Speed Heading
2026-05-07 03:35 39.82937 -104.67374 5402 ft 0 kts 180°
2026-05-07 03:43 39.82946 -104.67374 5402 ft 2 kts 180°
2026-05-07 03:43 39.82961 -104.67374 5402 ft 2 kts 180°
2026-05-07 03:44 39.82972 -104.67374 5402 ft 2 kts 180°
2026-05-07 03:44 39.82992 -104.67380 5402 ft 2 kts 146°
2026-05-07 03:44 39.83006 -104.67398 5402 ft 2 kts 118°
2026-05-07 03:44 39.83011 -104.67416 5402 ft 2 kts 96°
2026-05-07 03:45 39.83011 -104.67425 5402 ft 1 kts 89°
2026-05-07 03:45 39.83011 -104.67426 5402 ft 0 kts 89°
2026-05-07 03:48 39.83011 -104.67421 5402 ft 2 kts 89°
2026-05-07 03:48 39.83012 -104.67383 5402 ft 5 kts 89°
2026-05-07 03:49 39.83006 -104.67317 5402 ft 9 kts 105°
2026-05-07 03:49 39.82976 -104.67222 5401 ft 14 kts 116°
2026-05-07 03:49 39.82945 -104.67093 5405 ft 15 kts 99°
2026-05-07 03:49 39.82937 -104.66942 5408 ft 17 kts 90°
2026-05-07 03:50 39.82937 -104.66793 5418 ft 15 kts 90°
2026-05-07 03:50 39.82935 -104.66662 5427 ft 13 kts 90°
2026-05-07 03:50 39.82935 -104.66539 5433 ft 13 kts 89°
2026-05-07 03:50 39.82934 -104.66421 5435 ft 11 kts 90°
2026-05-07 03:51 39.82937 -104.66328 5435 ft 9 kts 81°
2026-05-07 03:51 39.82964 -104.66273 5435 ft 6 kts 26°
2026-05-07 03:51 39.83009 -104.66267 5435 ft 7 kts
2026-05-07 03:51 39.83073 -104.66266 5435 ft 10 kts 359°
2026-05-07 03:52 39.83162 -104.66265 5435 ft 14 kts
2026-05-07 03:52 39.83277 -104.66264 5435 ft 17 kts
2026-05-07 03:52 39.83416 -104.66262 5433 ft 21 kts
2026-05-07 03:52 39.83583 -104.66261 5431 ft 24 kts
2026-05-07 03:53 39.83742 -104.66259 5429 ft 21 kts
2026-05-07 03:53 39.83891 -104.66258 5424 ft 20 kts
2026-05-07 03:53 39.84031 -104.66256 5420 ft 19 kts
2026-05-07 03:53 39.84168 -104.66254 5415 ft 20 kts
2026-05-07 03:54 39.84319 -104.66253 5411 ft 22 kts
2026-05-07 03:54 39.84485 -104.66250 5405 ft 24 kts
2026-05-07 03:54 39.84658 -104.66247 5404 ft 24 kts
2026-05-07 03:54 39.84822 -104.66246 5402 ft 23 kts
2026-05-07 03:55 39.84978 -104.66244 5401 ft 21 kts
2026-05-07 03:55 39.85122 -104.66242 5400 ft 19 kts 360°
2026-05-07 03:55 39.85246 -104.66241 5399 ft 16 kts
2026-05-07 03:55 39.85350 -104.66240 5398 ft 13 kts
2026-05-07 03:56 39.85421 -104.66239 5397 ft 8 kts
2026-05-07 03:56 39.85479 -104.66238 5397 ft 8 kts
2026-05-07 03:56 39.85552 -104.66238 5396 ft 11 kts 359°
2026-05-07 03:56 39.85645 -104.66236 5395 ft 15 kts
2026-05-07 03:57 39.85766 -104.66235 5394 ft 18 kts
2026-05-07 03:57 39.85906 -104.66232 5393 ft 21 kts
2026-05-07 03:57 39.86065 -104.66231 5392 ft 23 kts 359°
2026-05-07 03:57 39.86233 -104.66228 5392 ft 24 kts
2026-05-07 03:58 39.86403 -104.66225 5391 ft 23 kts
2026-05-07 03:58 39.86552 -104.66225 5389 ft 20 kts 359°
2026-05-07 03:58 39.86695 -104.66222 5385 ft 19 kts
2026-05-07 03:58 39.86829 -104.66222 5380 ft 18 kts 359°
2026-05-07 03:59 39.86964 -104.66221 5375 ft 20 kts
2026-05-07 03:59 39.87107 -104.66218 5370 ft 20 kts
2026-05-07 03:59 39.87247 -104.66217 5369 ft 19 kts
2026-05-07 03:59 39.87393 -104.66215 5365 ft 21 kts
2026-05-07 04:00 39.87545 -104.66213 5362 ft 21 kts
2026-05-07 04:00 39.87671 -104.66211 5362 ft 13 kts
2026-05-07 04:00 39.87734 -104.66209 5362 ft 4 kts 23°
2026-05-07 04:00 39.87748 -104.66181 5362 ft 3 kts 65°
2026-05-07 04:01 39.87754 -104.66155 5362 ft 2 kts 86°
2026-05-07 04:01 39.87754 -104.66153 5362 ft 0 kts 86°
2026-05-07 04:02 39.87755 -104.66033 5362 ft 40 kts 91°
2026-05-07 04:02 39.87750 -104.65389 5357 ft 101 kts 90°
2026-05-07 04:02 39.87742 -104.64189 5340 ft 159 kts 90°
2026-05-07 04:03 39.87734 -104.62476 5329 ft 209 kts 92°
2026-05-07 04:03 39.87741 -104.60541 5764 ft 218 kts 91°
2026-05-07 04:03 39.87768 -104.58538 6431 ft 225 kts 83°
2026-05-07 04:03 39.88131 -104.56580 6864 ft 230 kts 74°
2026-05-07 04:04 39.88615 -104.54491 6929 ft 248 kts 74°
2026-05-07 04:04 39.89115 -104.52273 7056 ft 264 kts 74°
2026-05-07 04:04 39.89635 -104.49936 7308 ft 276 kts 73°
2026-05-07 04:04 39.90168 -104.47520 7767 ft 281 kts 73°
2026-05-07 04:05 39.90718 -104.45029 8125 ft 292 kts 72°
2026-05-07 04:05 39.91284 -104.42464 8526 ft 299 kts 72°
2026-05-07 04:05 39.91857 -104.39859 9043 ft 303 kts 70°
2026-05-07 04:05 39.92444 -104.37189 9561 ft 306 kts 69°
2026-05-07 04:06 39.93033 -104.34503 10102 ft 307 kts 69°
2026-05-07 04:06 39.93631 -104.31783 10353 ft 320 kts 69°
2026-05-07 04:06 39.94259 -104.28928 10503 ft 336 kts 69°
2026-05-07 04:06 39.94916 -104.25929 10674 ft 353 kts 69°
2026-05-07 04:07 39.95596 -104.22817 10874 ft 368 kts 70°
2026-05-07 04:07 39.96310 -104.19537 11110 ft 382 kts 69°
2026-05-07 04:07 39.97034 -104.16185 11475 ft 393 kts 71°
2026-05-07 04:07 39.97536 -104.12599 12037 ft 401 kts 77°
2026-05-07 04:08 39.97925 -104.09036 12726 ft 403 kts 77°
2026-05-07 04:08 39.98317 -104.05416 13289 ft 407 kts 77°
2026-05-07 04:08 39.98687 -104.01710 13421 ft 426 kts 81°
2026-05-07 04:08 39.99036 -103.97885 14044 ft 423 kts 75°
2026-05-07 04:09 39.99560 -103.94174 14972 ft 417 kts 74°
2026-05-07 04:09 40.00104 -103.90500 15677 ft 416 kts 74°
2026-05-07 04:09 40.00672 -103.86749 16192 ft 420 kts 73°
2026-05-07 04:09 40.01247 -103.82998 16702 ft 424 kts 73°
2026-05-07 04:10 40.01829 -103.79235 17263 ft 427 kts 73°
2026-05-07 04:10 40.02422 -103.75436 17759 ft 431 kts 73°
2026-05-07 04:10 40.03048 -103.71595 18290 ft 433 kts 72°
2026-05-07 04:10 40.03677 -103.67758 18800 ft 436 kts 72°
2026-05-07 04:11 40.04311 -103.63892 19282 ft 440 kts 73°
2026-05-07 04:11 40.04952 -103.59971 19795 ft 443 kts 73°
2026-05-07 04:11 40.05594 -103.56033 20302 ft 446 kts 72°
2026-05-07 04:11 40.06249 -103.52012 20796 ft 449 kts 72°
2026-05-07 04:12 40.06978 -103.47529 21319 ft 452 kts 72°
2026-05-07 04:12 40.07710 -103.43013 21805 ft 456 kts 73°
2026-05-07 04:12 40.08463 -103.38354 22319 ft 460 kts 73°
2026-05-07 04:12 40.09198 -103.33798 22844 ft 462 kts 73°
2026-05-07 04:13 40.09932 -103.29234 23303 ft 466 kts 73°
2026-05-07 04:13 40.10633 -103.24867 23749 ft 469 kts 73°
2026-05-07 04:13 40.11329 -103.20512 24271 ft 470 kts 73°
2026-05-07 04:13 40.12029 -103.16128 24674 ft 474 kts 73°
2026-05-07 04:14 40.12723 -103.11770 24953 ft 480 kts 73°
2026-05-07 04:14 40.13406 -103.07474 25340 ft 483 kts 73°
2026-05-07 04:14 40.14107 -103.03044 25818 ft 484 kts 73°
2026-05-07 04:14 40.14795 -102.98686 26254 ft 486 kts 73°
2026-05-07 04:15 40.15482 -102.94327 26645 ft 489 kts 73°
2026-05-07 04:15 40.16169 -102.89958 27021 ft 492 kts 73°
2026-05-07 04:15 40.16855 -102.85586 27385 ft 495 kts 73°
2026-05-07 04:15 40.17542 -102.81190 27794 ft 497 kts 73°
2026-05-07 04:16 40.18228 -102.76788 28212 ft 499 kts 73°
2026-05-07 04:16 40.18920 -102.72337 28650 ft 501 kts 73°
2026-05-07 04:16 40.19609 -102.67893 29056 ft 502 kts 73°
2026-05-07 04:17 40.20992 -102.58933 29088 ft 499 kts 73°
2026-05-07 04:17 40.22353 -102.50073 29090 ft 500 kts 73°
2026-05-07 04:18 40.23718 -102.41148 29090 ft 499 kts 73°
2026-05-07 04:18 40.25071 -102.32247 29078 ft 498 kts 73°
2026-05-07 04:19 40.26431 -102.23254 29071 ft 500 kts 73°
2026-05-07 04:19 40.27771 -102.14341 29070 ft 500 kts 73°
2026-05-07 04:20 40.29104 -102.05418 29067 ft 498 kts 73°
2026-05-07 04:20 40.30441 -101.96432 29064 ft 500 kts 73°
2026-05-07 04:21 40.32418 -101.83042 29066 ft 501 kts 73°
2026-05-07 04:21 40.33734 -101.74065 29064 ft 500 kts 73°
2026-05-07 04:22 40.35038 -101.65125 29062 ft 498 kts 73°
2026-05-07 04:22 40.36326 -101.56239 29073 ft 498 kts 73°
2026-05-07 04:23 40.37609 -101.47343 29079 ft 499 kts 73°
2026-05-07 04:23 40.38869 -101.38444 29084 ft 497 kts 73°
2026-05-07 04:24 40.40079 -101.29515 29065 ft 499 kts 74°
2026-05-07 04:24 40.41293 -101.20513 29067 ft 501 kts 74°
2026-05-07 04:25 40.42486 -101.11607 29077 ft 499 kts 74°
2026-05-07 04:25 40.43686 -101.02615 29073 ft 499 kts 74°
2026-05-07 04:26 40.44877 -100.93630 29063 ft 500 kts 74°
2026-05-07 04:26 40.46053 -100.84705 29075 ft 499 kts 74°
2026-05-07 04:27 40.47228 -100.75734 29074 ft 498 kts 74°
2026-05-07 04:27 40.48400 -100.66740 29078 ft 501 kts 74°
2026-05-07 04:28 40.49560 -100.57764 29061 ft 501 kts 74°
2026-05-07 04:28 40.50720 -100.48749 29076 ft 500 kts 75°
2026-05-07 04:29 40.51869 -100.39751 29062 ft 503 kts 75°
2026-05-07 04:29 40.53018 -100.30701 29077 ft 503 kts 75°
2026-05-07 04:30 40.54162 -100.21621 29061 ft 502 kts 75°
2026-05-07 04:30 40.55293 -100.12592 29067 ft 503 kts 75°
2026-05-07 04:31 40.56425 -100.03498 29064 ft 504 kts 75°
2026-05-07 04:31 40.57541 -99.94468 29067 ft 504 kts 75°
2026-05-07 04:32 40.58657 -99.85379 29065 ft 502 kts 75°
2026-05-07 04:32 40.59766 -99.76287 29063 ft 505 kts 75°
2026-05-07 04:33 40.60868 -99.67195 29067 ft 506 kts 75°
2026-05-07 04:33 40.61966 -99.58073 29063 ft 507 kts 75°
2026-05-07 04:34 40.63057 -99.48937 29062 ft 506 kts 75°
2026-05-07 04:34 40.64147 -99.39752 29062 ft 506 kts 75°
2026-05-07 04:35 40.65216 -99.30675 29067 ft 506 kts 76°
2026-05-07 04:35 40.66292 -99.21487 29058 ft 509 kts 76°
2026-05-07 04:36 40.67357 -99.12326 29064 ft 509 kts 76°
2026-05-07 04:36 40.68416 -99.03137 29068 ft 509 kts 76°
2026-05-07 04:37 40.69473 -98.93906 29074 ft 507 kts 76°
2026-05-07 04:37 40.70516 -98.84734 29060 ft 509 kts 76°
2026-05-07 04:38 40.71556 -98.75519 29049 ft 509 kts 76°
2026-05-07 04:38 40.72595 -98.66245 29053 ft 510 kts 76°
2026-05-07 04:39 40.73624 -98.56993 29050 ft 511 kts 76°
2026-05-07 04:39 40.74647 -98.47724 29052 ft 513 kts 76°
2026-05-07 04:40 40.75661 -98.38464 29049 ft 511 kts 76°
2026-05-07 04:40 40.76675 -98.29147 29048 ft 516 kts 77°
2026-05-07 04:41 40.77683 -98.19784 29042 ft 512 kts 77°
2026-05-07 04:41 40.78677 -98.10510 29049 ft 516 kts 77°
2026-05-07 04:42 40.79669 -98.01160 29051 ft 516 kts 77°
2026-05-07 04:42 40.80658 -97.91776 29050 ft 516 kts 77°
2026-05-07 04:43 40.81639 -97.82385 29060 ft 518 kts 77°
2026-05-07 04:43 40.82613 -97.72996 29057 ft 517 kts 77°
2026-05-07 04:44 40.83585 -97.63544 29053 ft 519 kts 77°
2026-05-07 04:44 40.84547 -97.54102 29066 ft 519 kts 77°
2026-05-07 04:45 40.85501 -97.44670 29049 ft 521 kts 77°
2026-05-07 04:45 40.86451 -97.35201 29043 ft 523 kts 77°
2026-05-07 04:46 40.87396 -97.25692 29039 ft 523 kts 78°
2026-05-07 04:46 40.88338 -97.16136 29036 ft 524 kts 77°
2026-05-07 04:47 40.89271 -97.06591 29039 ft 525 kts 78°
2026-05-07 04:47 40.90196 -96.97041 29043 ft 525 kts 78°
2026-05-07 04:48 40.91118 -96.87445 29050 ft 527 kts 78°
2026-05-07 04:48 40.92027 -96.77889 29061 ft 526 kts 78°
2026-05-07 04:49 40.93168 -96.68395 29059 ft 524 kts 71°
2026-05-07 04:49 40.94948 -96.59048 29052 ft 524 kts 71°
2026-05-07 04:50 40.96690 -96.49708 29072 ft 527 kts 71°
2026-05-07 04:50 40.98410 -96.40264 29048 ft 524 kts 71°
2026-05-07 04:51 41.00111 -96.30787 29052 ft 530 kts 72°
2026-05-07 04:51 41.01780 -96.21379 29047 ft 527 kts 73°
2026-05-07 04:52 41.03447 -96.11908 29045 ft 528 kts 73°
2026-05-07 04:52 41.05107 -96.02412 29047 ft 530 kts 73°
2026-05-07 04:53 41.06763 -95.92881 29044 ft 531 kts 73°
2026-05-07 04:53 41.08412 -95.83338 29045 ft 532 kts 73°
2026-05-07 04:54 41.10050 -95.73797 29047 ft 535 kts 73°
2026-05-07 04:54 41.11700 -95.64143 29050 ft 535 kts 73°
2026-05-07 04:55 41.13331 -95.54539 29050 ft 535 kts 73°
2026-05-07 04:55 41.14954 -95.44930 29057 ft 537 kts 73°
2026-05-07 04:56 41.16571 -95.35301 29056 ft 536 kts 73°
2026-05-07 04:56 41.18195 -95.25588 29046 ft 540 kts 74°
2026-05-07 04:57 41.19810 -95.15868 29051 ft 539 kts 74°
2026-05-07 04:57 41.21410 -95.06183 29047 ft 539 kts 74°
2026-05-07 04:58 41.23011 -94.96446 29048 ft 541 kts 74°
2026-05-07 04:58 41.24604 -94.86699 29049 ft 540 kts 74°
2026-05-07 04:59 41.26187 -94.76958 29055 ft 543 kts 74°
2026-05-07 04:59 41.27764 -94.67190 29050 ft 541 kts 74°
2026-05-07 05:00 41.29342 -94.57372 29053 ft 542 kts 74°
2026-05-07 05:00 41.30917 -94.47514 29057 ft 544 kts 75°
2026-05-07 05:01 41.32475 -94.37697 29054 ft 544 kts 75°
2026-05-07 05:01 41.34030 -94.27849 29045 ft 545 kts 75°
2026-05-07 05:02 41.35577 -94.17988 29052 ft 545 kts 76°
2026-05-07 05:02 41.37115 -94.08133 29047 ft 546 kts 76°
2026-05-07 05:03 41.38654 -93.98211 29054 ft 546 kts 76°
2026-05-07 05:03 41.40178 -93.88323 29062 ft 547 kts 76°
2026-05-07 05:04 41.41692 -93.78440 29063 ft 548 kts 76°
2026-05-07 05:04 41.43204 -93.68512 29066 ft 549 kts 76°
2026-05-07 05:05 41.44008 -93.58308 29069 ft 553 kts 85°
2026-05-07 05:05 41.44458 -93.48119 29063 ft 551 kts 85°
2026-05-07 05:06 41.44890 -93.37927 29064 ft 554 kts 85°
2026-05-07 05:06 41.45311 -93.27731 29058 ft 553 kts 86°
2026-05-07 05:07 41.45722 -93.17481 29056 ft 554 kts 87°
2026-05-07 05:07 41.46120 -93.07292 29064 ft 555 kts 87°
2026-05-07 05:08 41.46511 -92.97053 29060 ft 554 kts 87°
2026-05-07 05:08 41.46895 -92.86762 29059 ft 556 kts 87°
2026-05-07 05:09 41.47266 -92.76549 29057 ft 557 kts 87°
2026-05-07 05:09 41.47632 -92.66224 29058 ft 557 kts 87°
2026-05-07 05:10 41.47988 -92.55909 29061 ft 558 kts 87°
2026-05-07 05:10 41.48333 -92.45649 29050 ft 558 kts 88°
2026-05-07 05:11 41.48671 -92.35339 29047 ft 559 kts 87°
2026-05-07 05:11 41.49000 -92.24996 29042 ft 561 kts 89°
2026-05-07 05:12 41.49322 -92.14600 29052 ft 562 kts 89°
2026-05-07 05:12 41.49633 -92.04238 29044 ft 561 kts 89°
2026-05-07 05:13 41.49938 -91.93783 29041 ft 564 kts 89°
2026-05-07 05:13 41.50232 -91.83349 29057 ft 565 kts 89°
2026-05-07 05:14 41.50517 -91.72926 29050 ft 565 kts 89°
2026-05-07 05:14 41.50794 -91.62463 29062 ft 565 kts 89°
2026-05-07 05:15 41.51060 -91.52006 29055 ft 566 kts 89°
2026-05-07 05:15 41.51318 -91.41535 29063 ft 566 kts 89°
2026-05-07 05:16 41.51566 -91.31059 29046 ft 566 kts 90°
2026-05-07 05:16 41.51806 -91.20531 29041 ft 569 kts 90°
2026-05-07 05:17 41.52036 -91.10030 29051 ft 567 kts 89°
2026-05-07 05:17 41.52256 -90.99513 29052 ft 571 kts 89°
2026-05-07 05:18 41.52468 -90.88922 29049 ft 571 kts 90°
2026-05-07 05:18 41.52671 -90.78301 29057 ft 572 kts 90°
2026-05-07 05:19 41.52864 -90.67703 29066 ft 571 kts 90°
2026-05-07 05:19 41.53046 -90.57150 29068 ft 573 kts 90°
2026-05-07 05:20 41.53220 -90.46552 29060 ft 571 kts 90°
2026-05-07 05:20 41.53384 -90.35902 29067 ft 574 kts 90°
2026-05-07 05:21 41.53612 -90.19939 29048 ft 573 kts 91°
2026-05-07 05:22 41.53752 -90.09307 29057 ft 578 kts 91°
2026-05-07 05:22 41.53882 -89.98662 29037 ft 574 kts 91°
2026-05-07 05:23 41.54003 -89.87949 29046 ft 576 kts 90°
2026-05-07 05:23 41.54114 -89.77268 29056 ft 578 kts 90°
2026-05-07 05:24 41.54214 -89.66591 29071 ft 579 kts 91°
2026-05-07 05:24 41.54306 -89.55847 29049 ft 578 kts 90°
2026-05-07 05:25 41.54387 -89.45091 29058 ft 580 kts 91°
2026-05-07 05:25 41.54459 -89.34395 29070 ft 580 kts 91°
2026-05-07 05:26 41.54520 -89.23653 29043 ft 579 kts 91°
2026-05-07 05:26 41.54572 -89.12865 29035 ft 581 kts 91°
2026-05-07 05:27 41.54613 -89.02109 29054 ft 582 kts 91°
2026-05-07 05:27 41.54645 -88.91260 29037 ft 580 kts 92°
2026-05-07 05:28 41.54666 -88.80545 29051 ft 583 kts 91°
2026-05-07 05:28 41.54678 -88.69724 29056 ft 582 kts 91°
2026-05-07 05:29 41.54679 -88.58930 29054 ft 581 kts 92°
2026-05-07 05:29 41.54670 -88.48090 29035 ft 582 kts 91°
2026-05-07 05:30 41.54651 -88.37285 29049 ft 582 kts 91°
2026-05-07 05:30 41.55127 -88.26459 29066 ft 585 kts 82°
2026-05-07 05:31 41.56445 -88.15791 29038 ft 587 kts 81°
2026-05-07 05:31 41.57764 -88.05019 29071 ft 585 kts 81°
2026-05-07 05:32 41.59057 -87.94216 29035 ft 587 kts 81°
2026-05-07 05:32 41.60334 -87.83365 29035 ft 586 kts 82°
2026-05-07 05:33 41.61610 -87.72379 29037 ft 587 kts 82°
2026-05-07 05:33 41.62865 -87.61440 29041 ft 590 kts 81°
2026-05-07 05:34 41.64105 -87.50517 29031 ft 587 kts 81°
2026-05-07 05:34 41.65348 -87.39462 29025 ft 592 kts 81°
2026-05-07 05:35 41.66559 -87.28589 29050 ft 587 kts 82°
2026-05-07 05:35 41.67760 -87.17709 29009 ft 593 kts 82°
2026-05-07 05:36 41.68949 -87.06837 29031 ft 591 kts 82°
2026-05-07 05:36 41.70130 -86.95933 29014 ft 592 kts 82°
2026-05-07 05:37 41.71291 -86.85120 29036 ft 591 kts 82°
2026-05-07 05:37 41.72457 -86.74161 29055 ft 592 kts 83°
2026-05-07 05:38 41.73604 -86.63274 29042 ft 592 kts 82°
2026-05-07 05:38 41.74742 -86.52378 29012 ft 593 kts 82°
2026-05-07 05:39 41.75877 -86.41403 29019 ft 594 kts 82°
2026-05-07 05:39 41.77232 -86.30453 29000 ft 592 kts 74°
2026-05-07 05:40 41.79747 -86.19947 29055 ft 596 kts 70°
2026-05-07 05:40 41.82364 -86.09476 29041 ft 592 kts 70°
2026-05-07 05:41 41.84985 -85.98902 29016 ft 593 kts 70°
2026-05-07 05:41 41.87564 -85.88419 29001 ft 595 kts 70°
2026-05-07 05:42 41.90136 -85.77903 28982 ft 593 kts 70°
2026-05-07 05:42 41.92701 -85.67361 29009 ft 598 kts 70°
2026-05-07 05:43 41.95248 -85.56834 28966 ft 594 kts 70°
2026-05-07 05:43 41.97801 -85.46235 29017 ft 599 kts 70°
2026-05-07 05:44 42.00347 -85.35614 29023 ft 597 kts 70°
2026-05-07 05:44 42.02900 -85.24911 28966 ft 597 kts 71°
2026-05-07 05:45 42.05416 -85.14310 28966 ft 597 kts 71°
2026-05-07 05:45 42.07926 -85.03688 28986 ft 598 kts 71°
2026-05-07 05:46 42.10435 -84.93017 28982 ft 597 kts 71°
2026-05-07 05:46 42.12938 -84.82324 28976 ft 602 kts 71°
2026-05-07 05:47 42.15434 -84.71609 28965 ft 598 kts 71°
2026-05-07 05:47 42.17929 -84.60845 28982 ft 601 kts 71°
2026-05-07 05:48 42.20401 -84.50129 28963 ft 597 kts 71°
2026-05-07 05:48 42.22877 -84.39349 29007 ft 599 kts 71°
2026-05-07 05:49 42.25330 -84.28610 28975 ft 597 kts 71°
2026-05-07 05:49 42.27782 -84.17823 28954 ft 598 kts 72°
2026-05-07 05:50 42.30239 -84.06966 28945 ft 600 kts 72°
2026-05-07 05:50 42.32693 -83.96063 28927 ft 599 kts 72°
2026-05-07 05:51 42.35154 -83.85078 28949 ft 598 kts 72°
2026-05-07 05:51 42.37560 -83.74283 28951 ft 599 kts 72°
2026-05-07 05:52 42.39989 -83.63328 28953 ft 597 kts 72°
2026-05-07 05:52 42.42609 -83.52467 28971 ft 598 kts 66°
2026-05-07 05:53 42.45594 -83.41854 28982 ft 598 kts 67°
2026-05-07 05:53 42.48571 -83.31169 28957 ft 599 kts 68°
2026-05-07 05:54 42.51510 -83.20507 28960 ft 598 kts 68°
2026-05-07 05:54 42.54430 -83.09832 28962 ft 601 kts 68°
2026-05-07 05:55 42.57322 -82.99187 28956 ft 597 kts 68°
2026-05-07 05:55 42.60184 -82.88597 28954 ft 598 kts 68°
2026-05-07 05:56 42.63046 -82.77952 28952 ft 595 kts 68°
2026-05-07 05:56 42.65875 -82.67383 28976 ft 598 kts 68°
2026-05-07 05:57 42.68679 -82.56850 28952 ft 596 kts 68°
2026-05-07 05:57 42.71489 -82.46255 28975 ft 596 kts 68°
2026-05-07 05:58 42.74282 -82.35671 28981 ft 594 kts 68°
2026-05-07 05:58 42.77068 -82.25069 28970 ft 593 kts 69°
2026-05-07 05:59 42.79831 -82.14506 28952 ft 594 kts 69°
2026-05-07 05:59 42.82571 -82.03986 28976 ft 594 kts 69°
2026-05-07 06:00 42.85319 -81.93388 28989 ft 595 kts 69°
2026-05-07 06:00 42.88063 -81.82758 28950 ft 592 kts 69°
2026-05-07 06:01 42.90796 -81.72125 28955 ft 596 kts 69°
2026-05-07 06:01 42.93510 -81.61513 28960 ft 594 kts 69°
2026-05-07 06:02 42.96214 -81.50897 28966 ft 594 kts 69°
2026-05-07 06:02 42.98924 -81.40209 28973 ft 597 kts 69°
2026-05-07 06:03 43.01629 -81.29491 28960 ft 596 kts 70°
2026-05-07 06:03 43.04336 -81.18716 28970 ft 599 kts 70°
2026-05-07 06:04 43.07134 -81.08064 28967 ft 596 kts 64°
2026-05-07 06:04 43.10642 -80.97828 28966 ft 595 kts 63°
2026-05-07 06:05 43.14191 -80.87598 28963 ft 596 kts 63°
2026-05-07 06:05 43.17747 -80.77287 28961 ft 596 kts 62°
2026-05-07 06:06 43.21258 -80.67055 28956 ft 596 kts 63°
2026-05-07 06:06 43.24780 -80.56747 28962 ft 598 kts 63°
2026-05-07 06:07 43.28305 -80.46383 28961 ft 597 kts 63°
2026-05-07 06:07 43.31822 -80.35999 28960 ft 595 kts 63°
2026-05-07 06:08 43.35307 -80.25673 28939 ft 595 kts 63°
2026-05-07 06:08 43.38799 -80.15282 28945 ft 595 kts 63°
2026-05-07 06:09 43.42296 -80.04836 28940 ft 597 kts 63°
2026-05-07 06:09 43.45770 -79.94421 28949 ft 596 kts 64°
2026-05-07 06:10 43.49285 -79.83838 28955 ft 594 kts 64°
2026-05-07 06:10 43.52780 -79.73277 28971 ft 595 kts 64°
2026-05-07 06:11 43.56243 -79.62767 28969 ft 595 kts 64°
2026-05-07 06:11 43.59706 -79.52218 28972 ft 593 kts 64°
2026-05-07 06:12 43.63121 -79.41775 28985 ft 593 kts 64°
2026-05-07 06:12 43.66584 -79.31347 28956 ft 590 kts 60°
2026-05-07 06:13 43.70746 -79.21359 28980 ft 593 kts 58°
2026-05-07 06:13 43.74936 -79.11382 28977 ft 588 kts 58°
2026-05-07 06:14 43.79090 -79.01368 28950 ft 589 kts 58°
2026-05-07 06:14 43.83204 -78.91365 28967 ft 587 kts 58°
2026-05-07 06:15 43.87289 -78.81369 28971 ft 587 kts 58°
2026-05-07 06:15 43.91382 -78.71300 28966 ft 584 kts 58°
2026-05-07 06:16 43.95432 -78.61292 28965 ft 585 kts 59°
2026-05-07 06:16 43.99477 -78.51255 28959 ft 583 kts 59°
2026-05-07 06:17 44.03615 -78.40947 28954 ft 586 kts 59°
2026-05-07 06:17 44.07721 -78.30679 28937 ft 583 kts 60°
2026-05-07 06:18 44.11745 -78.20576 28935 ft 582 kts 60°
2026-05-07 06:18 44.15747 -78.10493 28932 ft 584 kts 60°
2026-05-07 06:19 44.19653 -78.00618 28934 ft 582 kts 60°
2026-05-07 06:19 44.23519 -77.90808 28914 ft 581 kts 60°
2026-05-07 06:20 44.27390 -77.80952 28917 ft 581 kts 60°
2026-05-07 06:20 44.31393 -77.70725 28924 ft 580 kts 60°
2026-05-07 06:21 44.35428 -77.60497 28925 ft 579 kts 57°
2026-05-07 06:21 44.40419 -77.51276 28913 ft 576 kts 47°
2026-05-07 06:22 44.46279 -77.41409 28921 ft 577 kts 47°
2026-05-07 06:22 44.54791 -77.26969 28897 ft 577 kts 49°
2026-05-07 06:23 44.60648 -77.16968 28904 ft 577 kts 49°
2026-05-07 06:23 44.66180 -77.07484 28893 ft 576 kts 49°
2026-05-07 06:24 44.71322 -76.98636 28901 ft 574 kts 49°
2026-05-07 06:24 44.76701 -76.89350 28888 ft 572 kts 49°
2026-05-07 06:25 44.81775 -76.80561 28896 ft 572 kts 49°
2026-05-07 06:25 44.86849 -76.71744 28904 ft 571 kts 49°
2026-05-07 06:26 44.91824 -76.63071 28873 ft 570 kts 49°
2026-05-07 06:26 44.96853 -76.54278 28901 ft 567 kts 49°
2026-05-07 06:27 45.01790 -76.45619 28878 ft 567 kts 49°
2026-05-07 06:27 45.06755 -76.36884 28872 ft 566 kts 50°
2026-05-07 06:28 45.11735 -76.28097 28842 ft 568 kts 50°
2026-05-07 06:28 45.16696 -76.19314 28844 ft 566 kts 51°
2026-05-07 06:29 45.21650 -76.10516 28854 ft 566 kts 51°
2026-05-07 06:29 45.26626 -76.01653 28835 ft 566 kts 51°
2026-05-07 06:30 45.31676 -75.92629 28842 ft 566 kts 51°
2026-05-07 06:30 45.36734 -75.83561 28848 ft 563 kts 51°
2026-05-07 06:31 45.41672 -75.74680 28852 ft 562 kts 51°
2026-05-07 06:31 45.46582 -75.65823 28852 ft 562 kts 51°
2026-05-07 06:32 45.51452 -75.57011 28843 ft 560 kts 51°
2026-05-07 06:32 45.56290 -75.48229 28837 ft 561 kts 51°
2026-05-07 06:33 45.61097 -75.39476 28840 ft 560 kts 51°
2026-05-07 06:33 45.65894 -75.30714 28813 ft 560 kts 52°
2026-05-07 06:34 45.70661 -75.21979 28807 ft 557 kts 52°
2026-05-07 06:34 45.75409 -75.13251 28804 ft 559 kts 52°
2026-05-07 06:35 45.80147 -75.04516 28817 ft 556 kts 52°
2026-05-07 06:35 45.84890 -74.95744 28805 ft 556 kts 52°
2026-05-07 06:36 45.89616 -74.86977 28794 ft 554 kts 52°
2026-05-07 06:36 45.94329 -74.78206 28808 ft 553 kts 52°
2026-05-07 06:37 45.99043 -74.69405 28799 ft 553 kts 52°
2026-05-07 06:37 46.03728 -74.60632 28801 ft 552 kts 52°
2026-05-07 06:38 46.08378 -74.51897 28807 ft 549 kts 52°
2026-05-07 06:38 46.12993 -74.43201 28780 ft 551 kts 52°
2026-05-07 06:39 46.17653 -74.34391 28786 ft 550 kts 53°
2026-05-07 06:39 46.22274 -74.25627 28776 ft 548 kts 54°
2026-05-07 06:40 46.26895 -74.16838 28776 ft 548 kts 54°
2026-05-07 06:40 46.31512 -74.08028 28763 ft 548 kts 54°
2026-05-07 06:41 46.36097 -73.99252 28765 ft 547 kts 54°
2026-05-07 06:41 46.40673 -73.90465 28760 ft 547 kts 54°
2026-05-07 06:42 46.45239 -73.81670 28743 ft 547 kts 54°
2026-05-07 06:42 46.49817 -73.72823 28759 ft 547 kts 54°
2026-05-07 06:43 46.54372 -73.63993 28763 ft 548 kts 54°
2026-05-07 06:43 46.58923 -73.55144 28757 ft 545 kts 54°
2026-05-07 06:44 46.63449 -73.46313 28766 ft 546 kts 54°
2026-05-07 06:44 46.67964 -73.37477 28761 ft 546 kts 54°
2026-05-07 06:45 46.72489 -73.28594 28756 ft 544 kts 55°
2026-05-07 06:45 46.76979 -73.19749 28747 ft 544 kts 55°
2026-05-07 06:46 46.81495 -73.10827 28757 ft 542 kts 55°
2026-05-07 06:46 46.86222 -73.01456 28772 ft 541 kts 55°
2026-05-07 06:47 46.90781 -72.92387 28776 ft 541 kts 55°
2026-05-07 06:47 46.95552 -72.82865 28784 ft 539 kts 56°
2026-05-07 06:48 47.00151 -72.73656 28775 ft 540 kts 56°
2026-05-07 06:48 47.04710 -72.64496 28771 ft 541 kts 56°
2026-05-07 06:49 47.09351 -72.55141 28762 ft 541 kts 56°
2026-05-07 06:49 47.14189 -72.45354 28742 ft 540 kts 56°
2026-05-07 06:50 47.18769 -72.36056 28743 ft 540 kts 56°
2026-05-07 06:50 47.23349 -72.26729 28747 ft 538 kts 57°
2026-05-07 06:51 47.27805 -72.17622 28741 ft 539 kts 57°
2026-05-07 06:51 47.32204 -72.08603 28730 ft 540 kts 57°
2026-05-07 06:52 47.36595 -71.99572 28719 ft 538 kts 57°
2026-05-07 06:52 47.40931 -71.90623 28722 ft 540 kts 57°
2026-05-07 06:53 47.45286 -71.81606 28719 ft 538 kts 57°
2026-05-07 06:53 47.49615 -71.72614 28718 ft 538 kts 57°
2026-05-07 06:54 47.53983 -71.63509 28720 ft 539 kts 57°
2026-05-07 06:54 47.58343 -71.54394 28722 ft 539 kts 57°
2026-05-07 06:55 47.62718 -71.45214 28716 ft 539 kts 57°
2026-05-07 06:55 47.67371 -71.35419 28710 ft 538 kts 57°
2026-05-07 06:56 47.72228 -71.25156 28708 ft 537 kts 58°
2026-05-07 06:56 47.76764 -71.15537 28698 ft 536 kts 58°
2026-05-07 06:57 47.81263 -71.05962 28701 ft 536 kts 58°
2026-05-07 06:57 47.85768 -70.96342 28705 ft 535 kts 58°
2026-05-07 06:58 47.90175 -70.86895 28711 ft 535 kts 58°
2026-05-07 06:58 47.94556 -70.77474 28717 ft 535 kts 58°
2026-05-07 06:59 47.98886 -70.68130 28716 ft 537 kts 58°
2026-05-07 06:59 48.03239 -70.58704 28712 ft 537 kts 58°
2026-05-07 07:00 48.07499 -70.49450 28712 ft 537 kts 58°
2026-05-07 07:00 48.11759 -70.40161 28708 ft 536 kts 58°
2026-05-07 07:01 48.15996 -70.30893 28712 ft 536 kts 59°
2026-05-07 07:01 48.20259 -70.21534 28713 ft 538 kts 59°
2026-05-07 07:02 48.24566 -70.12047 28726 ft 536 kts 59°
2026-05-07 07:02 48.28843 -70.02591 28727 ft 537 kts 59°
2026-05-07 07:03 48.33116 -69.93113 28725 ft 537 kts 59°
2026-05-07 07:03 48.37310 -69.83778 28720 ft 536 kts 59°
2026-05-07 07:04 48.41545 -69.74317 28717 ft 538 kts 59°
2026-05-07 07:04 48.45752 -69.64889 28719 ft 536 kts 59°
2026-05-07 07:05 48.49938 -69.55472 28725 ft 537 kts 59°
2026-05-07 07:05 48.54105 -69.46068 28736 ft 537 kts 59°
2026-05-07 07:06 48.58316 -69.36683 28976 ft 545 kts 59°
2026-05-07 07:06 48.60458 -69.31951 29677 ft 541 kts 59°
2026-05-07 07:06 48.62550 -69.27322 30499 ft 536 kts 60°
2026-05-07 07:07 48.64666 -69.22629 30729 ft 538 kts 60°
2026-05-07 07:07 48.66742 -69.18019 30751 ft 535 kts 60°
2026-05-07 07:07 48.70923 -69.08709 30748 ft 532 kts 60°
2026-05-07 07:08 48.75085 -68.99403 30744 ft 535 kts 60°
2026-05-07 07:08 48.79215 -68.90144 30736 ft 533 kts 60°
2026-05-07 07:09 48.83360 -68.80818 30745 ft 535 kts 60°
2026-05-07 07:09 48.87505 -68.71457 30735 ft 535 kts 60°
2026-05-07 07:10 48.91623 -68.62125 30737 ft 537 kts 60°
2026-05-07 07:10 48.95763 -68.52713 30750 ft 536 kts 60°
2026-05-07 07:11 48.99902 -68.43270 30754 ft 537 kts 60°
2026-05-07 07:11 49.04039 -68.33796 30747 ft 538 kts 60°
2026-05-07 07:12 49.08161 -68.24324 30745 ft 539 kts 60°
2026-05-07 07:12 49.12280 -68.14828 30730 ft 538 kts 60°
2026-05-07 07:13 49.16407 -68.05276 30739 ft 537 kts 60°
2026-05-07 07:13 49.20496 -67.95778 30738 ft 538 kts 60°
2026-05-07 07:14 49.24609 -67.86192 30733 ft 539 kts 60°
2026-05-07 07:14 49.28739 -67.76532 30723 ft 539 kts 60°
2026-05-07 07:15 49.32802 -67.66993 30718 ft 540 kts 60°
2026-05-07 07:15 49.36896 -67.57346 30718 ft 542 kts 60°
2026-05-07 07:16 49.40965 -67.47725 30710 ft 541 kts 61°
2026-05-07 07:16 49.45065 -67.37991 30717 ft 545 kts 60°
2026-05-07 07:17 49.49150 -67.28265 30728 ft 541 kts 62°
2026-05-07 07:17 49.53209 -67.18559 30733 ft 543 kts 62°
2026-05-07 07:18 49.57294 -67.08755 30738 ft 543 kts 62°
2026-05-07 07:18 49.61338 -66.99017 30735 ft 543 kts 62°
2026-05-07 07:19 49.65400 -66.89196 30733 ft 545 kts 62°
2026-05-07 07:19 49.69437 -66.79401 30728 ft 545 kts 62°
2026-05-07 07:20 49.73492 -66.69524 30742 ft 546 kts 62°
2026-05-07 07:20 49.77544 -66.59619 30745 ft 546 kts 62°
2026-05-07 07:21 49.81560 -66.49765 30733 ft 544 kts 61°
2026-05-07 07:21 49.85590 -66.39841 30723 ft 545 kts 61°
2026-05-07 07:22 49.89618 -66.29881 30726 ft 544 kts 62°
2026-05-07 07:22 49.93610 -66.19976 30731 ft 545 kts 62°
2026-05-07 07:23 49.97589 -66.10064 30731 ft 542 kts 62°
2026-05-07 07:23 50.01553 -66.00151 30733 ft 543 kts 62°
2026-05-07 07:24 50.05510 -65.90219 30735 ft 543 kts 62°
2026-05-07 07:24 50.09492 -65.80187 30726 ft 543 kts 62°
2026-05-07 07:25 50.15451 -65.65098 30718 ft 544 kts 62°
2026-05-07 07:26 50.19384 -65.55096 30719 ft 545 kts 62°
2026-05-07 07:26 50.23324 -65.45031 30713 ft 547 kts 62°
2026-05-07 07:27 50.27274 -65.34908 30717 ft 545 kts 63°
2026-05-07 07:27 50.31280 -65.24595 30708 ft 546 kts 63°
2026-05-07 07:28 50.35295 -65.14222 30706 ft 544 kts 63°
2026-05-07 07:28 50.39290 -65.03858 30695 ft 547 kts 63°
2026-05-07 07:29 50.43263 -64.93511 30685 ft 543 kts 63°
2026-05-07 07:29 50.47260 -64.83057 30699 ft 544 kts 63°
2026-05-07 07:30 50.51253 -64.72574 30713 ft 545 kts 63°
2026-05-07 07:30 50.55176 -64.62233 30698 ft 543 kts 63°
2026-05-07 07:31 50.59155 -64.51698 30706 ft 549 kts 63°
2026-05-07 07:31 50.63061 -64.41321 30715 ft 544 kts 63°
2026-05-07 07:32 50.66992 -64.30828 30698 ft 546 kts 64°
2026-05-07 07:32 50.70888 -64.20390 30709 ft 547 kts 64°
2026-05-07 07:33 50.74804 -64.09855 30708 ft 545 kts 64°
2026-05-07 07:33 50.78710 -63.99305 30709 ft 547 kts 63°
2026-05-07 07:34 50.82589 -63.88786 30703 ft 545 kts 64°
2026-05-07 07:34 50.86487 -63.78167 30697 ft 546 kts 64°
2026-05-07 07:35 50.90372 -63.67543 30730 ft 546 kts 64°
2026-05-07 07:35 50.94239 -63.56923 30718 ft 546 kts 64°
2026-05-07 07:36 50.98095 -63.46291 30709 ft 545 kts 64°
2026-05-07 07:36 51.01958 -63.35591 30721 ft 547 kts 63°
2026-05-07 07:37 51.05842 -63.24789 30722 ft 546 kts 64°
2026-05-07 07:37 51.09671 -63.14096 30719 ft 548 kts 64°
2026-05-07 07:38 51.13482 -63.03410 30693 ft 546 kts 64°
2026-05-07 07:38 51.17272 -62.92735 30700 ft 546 kts 64°
2026-05-07 07:39 51.21024 -62.82125 30703 ft 546 kts 64°
2026-05-07 07:39 51.24781 -62.71453 30701 ft 549 kts 64°
2026-05-07 07:40 51.28492 -62.60869 30702 ft 550 kts 64°
2026-05-07 07:40 51.32233 -62.50153 30716 ft 553 kts 64°
2026-05-07 07:41 51.35975 -62.39392 30726 ft 552 kts 64°
2026-05-07 07:41 51.39704 -62.28619 30712 ft 556 kts 65°
2026-05-07 07:42 51.43441 -62.17781 30716 ft 553 kts 64°
2026-05-07 07:42 51.47184 -62.06874 30737 ft 557 kts 64°
2026-05-07 07:43 51.50943 -61.95873 30748 ft 555 kts 64°
2026-05-07 07:43 51.54630 -61.85038 30753 ft 556 kts 64°
2026-05-07 07:44 51.58344 -61.74072 30770 ft 557 kts 64°
2026-05-07 07:44 51.62035 -61.63133 30762 ft 555 kts 64°
2026-05-07 07:45 51.65725 -61.52141 30771 ft 559 kts 64°
2026-05-07 07:45 51.69414 -61.41109 30774 ft 557 kts 64°
2026-05-07 07:46 51.73089 -61.30067 30761 ft 558 kts 65°
2026-05-07 07:46 51.76786 -61.18910 30768 ft 556 kts 65°
2026-05-07 07:47 51.80443 -61.07823 30753 ft 560 kts 65°
2026-05-07 07:47 51.84107 -60.96666 30743 ft 558 kts 64°
2026-05-07 07:48 51.87750 -60.85523 30749 ft 557 kts 64°
2026-05-07 07:48 51.91384 -60.74358 30769 ft 558 kts 64°
2026-05-07 07:49 51.94973 -60.63279 30777 ft 555 kts 64°
2026-05-07 07:49 51.98568 -60.52130 30786 ft 559 kts 64°
2026-05-07 07:50 52.02189 -60.40852 30786 ft 556 kts 64°
2026-05-07 07:50 52.05770 -60.29648 30777 ft 558 kts 65°
2026-05-07 07:51 52.09391 -60.18264 30772 ft 556 kts 65°
2026-05-07 07:51 52.12969 -60.06966 30760 ft 555 kts 65°
2026-05-07 07:52 52.16566 -59.95554 30771 ft 556 kts 65°
2026-05-07 07:52 52.20168 -59.84069 30786 ft 555 kts 65°
2026-05-07 07:53 52.23732 -59.72653 30802 ft 559 kts 65°
2026-05-07 07:53 52.27303 -59.61165 30793 ft 556 kts 66°
2026-05-07 07:54 52.30791 -59.49887 30793 ft 557 kts 65°
2026-05-07 07:54 52.34380 -59.38228 30798 ft 557 kts 65°
2026-05-07 07:55 52.37999 -59.26417 30799 ft 557 kts 66°
2026-05-07 07:55 52.41513 -59.14890 30805 ft 558 kts 66°
2026-05-07 07:56 52.45078 -59.03139 30806 ft 559 kts 66°
2026-05-07 07:56 52.48631 -58.91369 30800 ft 559 kts 66°
2026-05-07 07:57 52.52182 -58.79551 30802 ft 557 kts 66°
2026-05-07 07:57 52.55633 -58.68009 30808 ft 557 kts 66°
2026-05-07 07:58 52.59110 -58.56323 30816 ft 559 kts 66°
2026-05-07 07:58 52.62569 -58.44641 30816 ft 556 kts 66°
2026-05-07 07:59 52.66042 -58.32851 30833 ft 559 kts 67°
2026-05-07 07:59 52.69658 -58.20513 30826 ft 559 kts 67°
2026-05-07 08:00 52.73185 -58.08421 30825 ft 559 kts 67°
2026-05-07 08:00 52.76922 -57.95535 30840 ft 560 kts 67°
2026-05-07 08:01 52.80442 -57.83340 30837 ft 558 kts 67°
2026-05-07 08:01 52.83809 -57.71611 30850 ft 557 kts 67°
2026-05-07 08:02 52.87263 -57.59517 30840 ft 558 kts 67°
2026-05-07 08:02 52.90706 -57.47402 30834 ft 557 kts 67°
2026-05-07 08:03 52.94288 -57.34731 30845 ft 556 kts 68°
2026-05-07 08:03 52.98010 -57.21489 30834 ft 555 kts 68°
2026-05-07 08:04 53.01517 -57.08942 30836 ft 554 kts 68°
2026-05-07 08:04 53.04861 -56.96919 30834 ft 555 kts 68°
2026-05-07 08:05 53.08251 -56.84663 30850 ft 556 kts 68°
2026-05-07 08:05 53.11836 -56.72635 30940 ft 565 kts 64°
2026-05-07 08:05 53.13672 -56.66909 31517 ft 562 kts 64°
2026-05-07 08:06 53.15495 -56.61219 32304 ft 556 kts 64°
2026-05-07 08:06 53.17316 -56.55521 32816 ft 555 kts 64°
2026-05-07 08:06 53.19140 -56.49799 32867 ft 558 kts 64°
2026-05-07 08:07 53.22797 -56.38289 32876 ft 555 kts 64°
2026-05-07 08:07 53.26408 -56.26871 32874 ft 554 kts 65°
2026-05-07 08:08 53.30040 -56.15335 32873 ft 554 kts 65°
2026-05-07 08:08 53.33621 -56.03901 32880 ft 556 kts 65°
2026-05-07 08:09 53.37195 -55.92441 32874 ft 556 kts 65°
2026-05-07 08:09 53.40766 -55.80934 32884 ft 555 kts 65°
2026-05-07 08:10 53.44310 -55.69458 32895 ft 556 kts 65°
2026-05-07 08:10 53.47847 -55.57955 32892 ft 556 kts 65°
2026-05-07 08:11 53.51385 -55.46387 32891 ft 556 kts 65°
2026-05-07 08:11 53.54884 -55.34895 32909 ft 555 kts 65°
2026-05-07 08:12 53.58389 -55.23326 32905 ft 555 kts 65°
2026-05-07 08:12 53.61882 -55.11742 32894 ft 556 kts 65°
2026-05-07 08:13 53.65375 -55.00100 32915 ft 555 kts 65°
2026-05-07 08:13 53.68833 -54.88520 32914 ft 556 kts 65°
2026-05-07 08:14 53.72278 -54.76926 32904 ft 556 kts 65°
2026-05-07 08:14 53.75729 -54.65255 32907 ft 556 kts 65°
2026-05-07 08:15 53.79171 -54.53554 32904 ft 556 kts 66°
2026-05-07 08:15 53.82595 -54.41861 32906 ft 555 kts 65°
2026-05-07 08:16 53.85999 -54.30177 32905 ft 554 kts 67°
2026-05-07 08:16 53.89397 -54.18456 32910 ft 555 kts 66°
2026-05-07 08:17 53.92769 -54.06765 32918 ft 553 kts 66°
2026-05-07 08:17 53.96150 -53.94984 32915 ft 553 kts 66°
2026-05-07 08:18 53.99495 -53.83268 32916 ft 552 kts 66°
2026-05-07 08:18 54.02834 -53.71517 32926 ft 552 kts 66°
2026-05-07 08:19 54.06161 -53.59750 32936 ft 553 kts 66°
2026-05-07 08:19 54.09486 -53.47926 32934 ft 552 kts 66°
2026-05-07 08:20 54.12782 -53.36148 32935 ft 552 kts 65°
2026-05-07 08:20 54.16077 -53.24314 32922 ft 552 kts 66°
2026-05-07 08:21 54.19365 -53.12445 32930 ft 550 kts 67°
2026-05-07 08:21 54.22632 -53.00588 32938 ft 552 kts 66°
2026-05-07 08:22 54.25869 -52.88784 32933 ft 549 kts 66°
2026-05-07 08:22 54.29105 -52.76920 32943 ft 551 kts 66°
2026-05-07 08:23 54.32334 -52.65020 32947 ft 549 kts 66°
2026-05-07 08:23 54.35552 -52.53099 32953 ft 548 kts 66°
2026-05-07 08:24 54.38733 -52.41253 32956 ft 547 kts 66°
2026-05-07 08:24 54.41902 -52.29390 32945 ft 547 kts 67°
2026-05-07 08:25 54.45084 -52.17416 32951 ft 547 kts 66°
2026-05-07 08:25 54.48216 -52.05568 32955 ft 545 kts 66°
2026-05-07 08:26 54.52936 -51.87593 32962 ft 545 kts 66°
2026-05-07 08:26 54.56181 -51.75152 32960 ft 546 kts 66°
2026-05-07 08:27 54.59309 -51.63099 32970 ft 546 kts 66°
2026-05-07 08:27 54.62386 -51.51173 32974 ft 547 kts 66°
2026-05-07 08:28 54.65456 -51.39214 32980 ft 545 kts 66°
2026-05-07 08:28 54.68530 -51.27173 32964 ft 545 kts 68°
2026-05-07 08:29 54.71590 -51.15123 32968 ft 544 kts 67°
2026-05-07 08:29 54.74614 -51.03147 32978 ft 544 kts 67°
2026-05-07 08:30 54.77642 -50.91092 32977 ft 544 kts 67°
2026-05-07 08:30 54.80647 -50.79067 32993 ft 545 kts 67°
2026-05-07 08:31 54.83647 -50.66990 33006 ft 545 kts 67°
2026-05-07 08:31 54.86660 -50.54797 33009 ft 545 kts 67°
2026-05-07 08:32 54.89624 -50.42736 33017 ft 542 kts 67°
2026-05-07 08:32 54.92629 -50.30443 33015 ft 543 kts 68°
2026-05-07 08:33 54.95597 -50.18229 33021 ft 542 kts 68°
2026-05-07 08:33 54.98612 -50.05748 33026 ft 543 kts 68°
2026-05-07 08:34 55.00866 -49.92983 33031 ft 542 kts 76°
2026-05-07 08:34 55.02747 -49.80257 33039 ft 541 kts 76°
2026-05-07 08:35 55.04594 -49.67470 33028 ft 540 kts 76°
2026-05-07 08:35 55.06407 -49.54713 33036 ft 540 kts 76°
2026-05-07 08:36 55.08190 -49.42004 33032 ft 539 kts 76°
2026-05-07 08:36 55.09967 -49.29195 33023 ft 538 kts 77°
2026-05-07 08:37 55.11714 -49.16481 33022 ft 537 kts 77°
2026-05-07 08:37 55.13446 -49.03752 33031 ft 536 kts 77°
2026-05-07 08:38 55.15169 -48.90981 33029 ft 536 kts 77°
2026-05-07 08:38 55.16866 -48.78281 33039 ft 537 kts 77°
2026-05-07 08:39 55.18553 -48.65555 33043 ft 535 kts 77°
2026-05-07 08:39 55.20227 -48.52805 33046 ft 536 kts 77°
2026-05-07 08:40 55.21890 -48.40029 33055 ft 535 kts 77°
2026-05-07 08:40 55.23523 -48.27374 33052 ft 536 kts 78°
2026-05-07 08:41 55.25158 -48.14591 33061 ft 536 kts 78°
2026-05-07 08:41 55.26790 -48.01711 33063 ft 536 kts 78°
2026-05-07 08:42 55.28398 -47.88907 33063 ft 535 kts 77°
2026-05-07 08:42 55.29989 -47.76124 33075 ft 537 kts 77°
2026-05-07 08:43 55.31600 -47.63055 33068 ft 535 kts 77°
2026-05-07 08:43 55.33210 -47.49868 33069 ft 533 kts 77°
2026-05-07 08:44 55.34826 -47.36502 33072 ft 535 kts 77°
2026-05-07 08:44 55.36496 -47.22555 33066 ft 534 kts 78°
2026-05-07 08:45 55.38081 -47.09179 33067 ft 533 kts 78°
2026-05-07 08:45 55.39582 -46.96376 33069 ft 533 kts 78°
2026-05-07 08:46 55.41075 -46.83533 33078 ft 530 kts 78°
2026-05-07 08:46 55.42547 -46.70741 33086 ft 531 kts 77°
2026-05-07 08:47 55.43998 -46.57999 33084 ft 531 kts 77°
2026-05-07 08:47 55.45444 -46.45182 33094 ft 530 kts 77°
2026-05-07 08:48 55.46871 -46.32410 33103 ft 529 kts 78°
2026-05-07 08:48 55.48278 -46.19688 33100 ft 530 kts 78°
2026-05-07 08:49 55.49770 -46.06046 33111 ft 527 kts 77°
2026-05-07 08:49 55.51162 -45.93187 33113 ft 528 kts 77°
2026-05-07 08:50 55.52538 -45.80339 33111 ft 527 kts 77°
2026-05-07 08:50 55.53902 -45.67485 33113 ft 529 kts 77°
2026-05-07 08:51 55.55260 -45.54531 33114 ft 527 kts 77°
2026-05-07 08:51 55.56584 -45.41774 33118 ft 527 kts 77°
2026-05-07 08:52 55.57943 -45.28534 33118 ft 527 kts 78°
2026-05-07 08:52 55.59345 -45.14716 33124 ft 526 kts 78°
2026-05-07 08:53 55.60680 -45.01397 33132 ft 526 kts 78°
2026-05-07 08:53 55.61948 -44.88610 33138 ft 525 kts 78°
2026-05-07 08:54 55.63200 -44.75848 33147 ft 524 kts 78°
2026-05-07 08:54 55.64504 -44.62393 33146 ft 525 kts 78°
2026-05-07 08:55 55.65739 -44.49503 33148 ft 527 kts 78°
2026-05-07 08:55 55.66991 -44.36285 33160 ft 526 kts 78°
2026-05-07 08:56 55.68256 -44.22751 33153 ft 527 kts 78°
2026-05-07 08:56 55.69449 -44.09841 33163 ft 525 kts 78°
2026-05-07 08:57 55.70693 -43.96212 33167 ft 525 kts 78°
2026-05-07 08:57 55.71931 -43.82472 33176 ft 525 kts 78°
2026-05-07 08:58 55.73225 -43.67904 33181 ft 525 kts 78°
2026-05-07 08:58 55.74364 -43.54923 33181 ft 525 kts 78°
2026-05-07 08:59 55.75468 -43.42175 33186 ft 524 kts 78°
2026-05-07 08:59 55.76588 -43.29084 33181 ft 526 kts 78°
2026-05-07 09:00 55.77681 -43.16130 33188 ft 526 kts 78°
2026-05-07 09:00 55.78754 -43.03261 33188 ft 525 kts 78°
2026-05-07 09:01 55.79832 -42.90147 33197 ft 524 kts 78°
2026-05-07 09:01 55.80880 -42.77230 33199 ft 525 kts 78°
2026-05-07 09:02 55.81910 -42.64350 33205 ft 526 kts 78°
2026-05-07 09:02 55.82930 -42.51440 33204 ft 526 kts 78°
2026-05-07 09:03 55.83946 -42.38387 33222 ft 525 kts 78°
2026-05-07 09:03 55.84945 -42.25372 33221 ft 525 kts 79°
2026-05-07 09:04 55.85926 -42.12400 33229 ft 525 kts 79°
2026-05-07 09:04 55.86900 -41.99334 33235 ft 526 kts 78°
2026-05-07 09:05 55.87902 -41.85688 33231 ft 524 kts 78°
2026-05-07 09:05 55.88845 -41.72651 33238 ft 524 kts 79°
2026-05-07 09:06 55.89765 -41.59734 33241 ft 522 kts 78°
2026-05-07 09:06 55.90670 -41.46831 33231 ft 522 kts 78°
2026-05-07 09:07 55.91559 -41.33967 33227 ft 523 kts 79°
2026-05-07 09:07 55.92444 -41.20956 33225 ft 522 kts 79°
2026-05-07 09:08 55.93307 -41.08054 33225 ft 522 kts 78°
2026-05-07 09:08 55.94161 -40.95095 33236 ft 521 kts 78°
2026-05-07 09:09 55.94994 -40.82224 33243 ft 521 kts 78°
2026-05-07 09:09 55.95818 -40.69302 33248 ft 522 kts 78°
2026-05-07 09:10 55.96645 -40.56087 33244 ft 520 kts 78°
2026-05-07 09:10 55.97482 -40.42472 33251 ft 520 kts 78°
2026-05-07 09:11 55.98296 -40.28999 33254 ft 520 kts 79°
2026-05-07 09:11 55.99115 -40.15179 33261 ft 520 kts 78°
2026-05-07 09:12 55.99884 -40.01926 33268 ft 519 kts 78°
2026-05-07 09:12 56.01163 -39.89149 33284 ft 511 kts 68°
2026-05-07 09:13 56.03061 -39.76963 33277 ft 510 kts 68°
2026-05-07 09:13 56.04898 -39.64666 33277 ft 513 kts 69°
2026-05-07 09:14 56.06681 -39.52313 33283 ft 512 kts 69°
2026-05-07 09:14 56.08430 -39.39939 33277 ft 513 kts 69°
2026-05-07 09:15 56.10144 -39.27606 33277 ft 512 kts 70°
2026-05-07 09:15 56.11844 -39.15228 33281 ft 513 kts 70°
2026-05-07 09:16 56.13523 -39.02862 33289 ft 511 kts 70°
2026-05-07 09:16 56.15194 -38.90442 33282 ft 509 kts 69°
2026-05-07 09:17 56.16836 -38.78137 33286 ft 511 kts 69°
2026-05-07 09:17 56.18484 -38.65673 33292 ft 511 kts 69°
2026-05-07 09:18 56.20115 -38.53229 33286 ft 512 kts 69°
2026-05-07 09:18 56.21725 -38.40830 33295 ft 510 kts 69°
2026-05-07 09:19 56.23319 -38.28456 33302 ft 511 kts 70°
2026-05-07 09:19 56.24950 -38.15696 33313 ft 513 kts 70°
2026-05-07 09:20 56.26552 -38.03020 33321 ft 511 kts 69°
2026-05-07 09:20 56.28154 -37.90252 33322 ft 511 kts 69°
2026-05-07 09:21 56.29711 -37.77710 33320 ft 508 kts 69°
2026-05-07 09:21 56.31256 -37.65181 33324 ft 511 kts 69°
2026-05-07 09:22 56.32798 -37.52541 33326 ft 509 kts 69°
2026-05-07 09:22 56.34313 -37.40015 33327 ft 508 kts 69°
2026-05-07 09:23 56.35811 -37.27527 33322 ft 512 kts 70°
2026-05-07 09:23 56.37306 -37.14925 33315 ft 507 kts 70°
2026-05-07 09:24 56.38778 -37.02417 33318 ft 509 kts 70°
2026-05-07 09:24 56.40236 -36.89900 33318 ft 506 kts 70°
2026-05-07 09:25 56.41690 -36.77324 33319 ft 509 kts 70°
2026-05-07 09:25 56.43129 -36.64724 33317 ft 507 kts 70°
2026-05-07 09:26 56.44563 -36.52070 33314 ft 508 kts 70°
2026-05-07 09:26 56.45985 -36.39395 33316 ft 509 kts 69°
2026-05-07 09:27 56.47396 -36.26693 33310 ft 510 kts 70°
2026-05-07 09:28 56.49465 -36.07825 33305 ft 511 kts 70°
2026-05-07 09:28 56.50821 -35.95292 33305 ft 508 kts 70°
2026-05-07 09:29 56.52171 -35.82712 33298 ft 509 kts 70°
2026-05-07 09:29 56.53499 -35.70208 33309 ft 513 kts 70°
2026-05-07 09:30 56.54818 -35.57633 33309 ft 508 kts 70°
2026-05-07 09:30 56.56125 -35.45085 33310 ft 511 kts 70°
2026-05-07 09:31 56.57424 -35.32455 33307 ft 511 kts 71°
2026-05-07 09:31 56.58715 -35.19778 33301 ft 511 kts 71°
2026-05-07 09:32 56.59989 -35.07132 33306 ft 511 kts 71°
2026-05-07 09:32 56.61274 -34.94246 33300 ft 516 kts 71°
2026-05-07 09:33 56.62534 -34.81447 33309 ft 514 kts 70°
2026-05-07 09:33 56.63779 -34.68649 33301 ft 508 kts 70°
2026-05-07 09:34 56.65033 -34.55668 33304 ft 514 kts 70°
2026-05-07 09:34 56.66260 -34.42762 33310 ft 512 kts 70°
2026-05-07 09:35 56.67484 -34.29780 33290 ft 513 kts 71°
2026-05-07 09:35 56.68711 -34.16582 33298 ft 514 kts 71°
2026-05-07 09:36 56.69910 -34.03548 33289 ft 514 kts 71°
2026-05-07 09:36 56.71069 -33.90787 33302 ft 514 kts 70°
2026-05-07 09:37 56.72221 -33.77963 33309 ft 517 kts 71°
2026-05-07 09:37 56.73359 -33.65110 33289 ft 514 kts 70°
2026-05-07 09:38 56.74489 -33.52213 33311 ft 514 kts 70°
2026-05-07 09:38 56.75594 -33.39421 33315 ft 510 kts 70°
2026-05-07 09:39 56.76688 -33.26644 33310 ft 514 kts 71°
2026-05-07 09:39 56.77768 -33.13846 33309 ft 512 kts 71°
2026-05-07 09:40 56.78831 -33.01080 33305 ft 511 kts 71°
2026-05-07 09:40 56.79877 -32.88347 33310 ft 510 kts 71°
2026-05-07 09:41 56.80921 -32.75512 33302 ft 513 kts 71°
2026-05-07 09:41 56.81943 -32.62746 33303 ft 510 kts 71°
2026-05-07 09:42 56.82952 -32.49971 33305 ft 509 kts 71°
2026-05-07 09:42 56.83943 -32.37260 33301 ft 509 kts 71°
2026-05-07 09:43 56.84925 -32.24514 33289 ft 511 kts 72°
2026-05-07 09:43 56.85889 -32.11784 33275 ft 507 kts 72°
2026-05-07 09:44 56.86850 -31.98951 33289 ft 509 kts 72°
2026-05-07 09:44 56.87783 -31.86293 33284 ft 508 kts 72°
2026-05-07 09:45 56.88713 -31.73522 33292 ft 510 kts 72°
2026-05-07 09:45 56.89629 -31.60723 33288 ft 509 kts 72°
2026-05-07 09:46 56.90530 -31.47941 33274 ft 505 kts 72°
2026-05-07 09:46 56.91419 -31.35179 33268 ft 510 kts 72°
2026-05-07 09:47 56.92295 -31.22402 33260 ft 513 kts 73°
2026-05-07 09:47 56.93161 -31.09507 33268 ft 505 kts 73°
2026-05-07 09:48 56.94009 -30.96747 33267 ft 508 kts 74°
2026-05-07 09:48 56.94841 -30.84015 33281 ft 506 kts 74°
2026-05-07 09:49 56.95665 -30.71180 33266 ft 506 kts 74°
2026-05-07 09:49 56.96470 -30.58463 33266 ft 507 kts 75°
2026-05-07 09:50 56.97264 -30.45667 33272 ft 505 kts 75°
2026-05-07 09:50 56.98042 -30.32952 33265 ft 503 kts 76°
2026-05-07 09:51 56.98808 -30.20213 33267 ft 504 kts 76°
2026-05-07 09:51 56.99558 -30.07534 33257 ft 504 kts 76°
2026-05-07 09:52 57.00180 -29.94733 33269 ft 507 kts 78°
2026-05-07 09:52 57.00689 -29.81983 33259 ft 504 kts 79°
2026-05-07 09:53 57.01184 -29.69139 33263 ft 505 kts 79°
2026-05-07 09:53 57.01660 -29.56341 33260 ft 504 kts 79°
2026-05-07 09:54 57.02120 -29.43587 33259 ft 503 kts 79°
2026-05-07 09:54 57.02565 -29.30888 33253 ft 503 kts 80°
2026-05-07 09:55 57.02998 -29.18104 33249 ft 503 kts 80°
2026-05-07 09:55 57.03418 -29.05352 33248 ft 503 kts 80°
2026-05-07 09:56 57.03825 -28.92563 33247 ft 503 kts 81°
2026-05-07 09:56 57.04217 -28.79869 33245 ft 504 kts 81°
2026-05-07 09:57 57.04599 -28.67025 33243 ft 503 kts 81°
2026-05-07 09:57 57.04965 -28.54308 33241 ft 504 kts 81°
2026-05-07 09:58 57.05320 -28.41531 33239 ft 503 kts 81°
2026-05-07 09:58 57.05663 -28.28677 33235 ft 504 kts 82°
2026-05-07 09:59 57.05991 -28.15910 33230 ft 504 kts 82°
2026-05-07 09:59 57.06307 -28.03130 33230 ft 503 kts 82°
2026-05-07 10:00 57.06609 -27.90342 33222 ft 504 kts 82°
2026-05-07 10:00 57.06899 -27.77514 33221 ft 504 kts 82°
2026-05-07 10:01 57.07177 -27.64682 33215 ft 504 kts 82°
2026-05-07 10:01 57.07441 -27.51844 33214 ft 503 kts 82°
2026-05-07 10:02 57.07690 -27.39110 33207 ft 503 kts 83°
2026-05-07 10:02 57.07928 -27.26249 33206 ft 503 kts 84°
2026-05-07 10:03 57.08153 -27.13435 33206 ft 504 kts 84°
2026-05-07 10:03 57.08363 -27.00637 33211 ft 502 kts 84°
2026-05-07 10:04 57.08561 -26.87918 33208 ft 503 kts 84°
2026-05-07 10:04 57.08746 -26.75101 33209 ft 503 kts 84°
2026-05-07 10:05 57.08918 -26.62276 33205 ft 503 kts 84°
2026-05-07 10:05 57.09077 -26.49486 33204 ft 503 kts 84°
2026-05-07 10:06 57.09222 -26.36729 33197 ft 503 kts 84°
2026-05-07 10:06 57.09355 -26.23959 33195 ft 503 kts 85°
2026-05-07 10:07 57.09475 -26.11083 33194 ft 503 kts 85°
2026-05-07 10:07 57.09581 -25.98314 33188 ft 502 kts 85°
2026-05-07 10:08 57.09675 -25.85544 33185 ft 502 kts 85°
2026-05-07 10:08 57.09755 -25.72755 33175 ft 502 kts 85°
2026-05-07 10:09 57.09823 -25.59984 33182 ft 502 kts 85°
2026-05-07 10:09 57.09877 -25.47224 33175 ft 502 kts 86°
2026-05-07 10:10 57.09919 -25.34381 33173 ft 502 kts 86°
2026-05-07 10:10 57.09948 -25.21591 33169 ft 503 kts 86°
2026-05-07 10:11 57.09963 -25.08834 33168 ft 503 kts 87°
2026-05-07 10:11 57.09965 -24.95971 33169 ft 503 kts 87°
2026-05-07 10:12 57.09955 -24.83206 33162 ft 503 kts 87°
2026-05-07 10:12 57.09931 -24.70406 33160 ft 503 kts 87°
2026-05-07 10:13 57.09895 -24.57597 33155 ft 502 kts 87°
2026-05-07 10:13 57.09845 -24.44820 33150 ft 502 kts 87°
2026-05-07 10:14 57.09782 -24.32011 33148 ft 503 kts 88°
2026-05-07 10:14 57.09706 -24.19163 33148 ft 503 kts 88°
2026-05-07 10:15 57.09617 -24.06327 33151 ft 503 kts 88°
2026-05-07 10:15 57.09515 -23.93522 33146 ft 504 kts 88°
2026-05-07 10:16 57.09400 -23.80733 33143 ft 504 kts 88°
2026-05-07 10:16 57.09271 -23.67882 33134 ft 503 kts 88°
2026-05-07 10:17 57.09130 -23.55074 33130 ft 503 kts 88°
2026-05-07 10:17 57.08976 -23.42263 33131 ft 504 kts 88°
2026-05-07 10:18 57.08808 -23.29398 33123 ft 504 kts 89°
2026-05-07 10:18 57.08627 -23.16564 33115 ft 504 kts 89°
2026-05-07 10:19 57.08433 -23.03768 33115 ft 504 kts 89°
2026-05-07 10:19 57.08226 -22.90925 33110 ft 504 kts 89°
2026-05-07 10:20 57.08005 -22.78053 33105 ft 505 kts 89°
2026-05-07 10:20 57.07771 -22.65198 33104 ft 505 kts 90°
2026-05-07 10:21 57.07525 -22.52381 33091 ft 505 kts 90°
2026-05-07 10:21 57.07265 -22.39564 33089 ft 505 kts 90°
2026-05-07 10:22 57.06990 -22.26644 33079 ft 506 kts 91°
2026-05-07 10:22 57.06704 -22.13807 33076 ft 505 kts 91°
2026-05-07 10:23 57.06405 -22.00968 33074 ft 506 kts 91°
2026-05-07 10:23 57.06090 -21.88049 33066 ft 507 kts 91°
2026-05-07 10:24 57.05763 -21.75145 33064 ft 507 kts 91°
2026-05-07 10:24 57.05424 -21.62323 33061 ft 508 kts 91°
2026-05-07 10:25 57.05069 -21.49413 33059 ft 508 kts 91°
2026-05-07 10:25 57.04701 -21.36473 33058 ft 509 kts 91°
2026-05-07 10:26 57.04320 -21.23556 33052 ft 508 kts 92°
2026-05-07 10:26 57.03925 -21.10647 33051 ft 508 kts 92°
2026-05-07 10:27 57.03516 -20.97692 33047 ft 509 kts 92°
2026-05-07 10:27 57.03097 -20.84853 33040 ft 510 kts 92°
2026-05-07 10:28 57.02657 -20.71783 33036 ft 511 kts 92°
2026-05-07 10:28 57.02207 -20.58807 33035 ft 511 kts 92°
2026-05-07 10:29 57.01745 -20.45895 33033 ft 511 kts 92°
2026-05-07 10:29 57.01269 -20.32958 33017 ft 510 kts 93°
2026-05-07 10:30 57.00527 -20.13464 33013 ft 511 kts 94°
2026-05-07 10:30 56.99656 -20.00560 33011 ft 513 kts 104°
2026-05-07 10:31 56.97673 -19.87993 33008 ft 512 kts 107°
2026-05-07 10:31 56.95571 -19.75561 33001 ft 512 kts 108°
2026-05-07 10:32 56.93412 -19.63138 32993 ft 513 kts 108°
2026-05-07 10:32 56.91193 -19.50594 33002 ft 513 kts 108°
2026-05-07 10:33 56.88866 -19.37613 32989 ft 513 kts 108°
2026-05-07 10:33 56.86541 -19.24776 32995 ft 513 kts 109°
2026-05-07 10:34 56.84256 -19.12262 32979 ft 512 kts 109°
2026-05-07 10:34 56.81975 -18.99865 32999 ft 512 kts 109°
2026-05-07 10:35 56.79699 -18.87585 32984 ft 511 kts 110°
2026-05-07 10:35 56.77396 -18.75242 32973 ft 513 kts 110°
2026-05-07 10:36 56.75059 -18.62798 32971 ft 513 kts 110°
2026-05-07 10:36 56.72697 -18.50308 32982 ft 513 kts 110°
2026-05-07 10:37 56.70367 -18.38064 32982 ft 513 kts 110°
2026-05-07 10:37 56.68038 -18.25904 32964 ft 513 kts 111°